| time (UTC) | temp C | wind direction | speed KPH | gust KPH | rain 1hr cm | rain 24hr cm | rain mn cm | humidity % | barometer mb |
| 20260509120856 | 13 | 180 | 0.0 | 0.0 | 0.00 | 0.00 | 0.03 | 63 | 1016.6 |
| 20260509115856 | 13 | 180 | 0.0 | 0.0 | 0.00 | 0.00 | 0.03 | 62 | 1016.4 |
| 20260509114855 | 13 | 180 | 0.0 | 0.0 | 0.00 | 0.00 | 0.03 | 61 | 1016.2 |
| 20260509113855 | 13 | 180 | 0.0 | 0.0 | 0.00 | 0.00 | 0.03 | 60 | 1016.0 |
| 20260509112854 | 13 | 180 | 0.0 | 0.0 | 0.00 | 0.00 | 0.03 | 59 | 1015.8 |
| 20260509111854 | 13 | 180 | 0.0 | 0.0 | 0.00 | 0.00 | 0.03 | 58 | 1015.8 |
| 20260509110853 | 13 | 225 | 0.0 | 0.0 | 0.00 | 0.00 | 0.03 | 56 | 1015.5 |
| 20260509105853 | 13 | 200 | 0.0 | 1.6 | 0.00 | 0.00 | 0.03 | 55 | 1015.3 |
| 20260509104853 | 13 | 180 | 0.0 | 0.0 | 0.00 | 0.00 | 0.03 | 53 | 1015.1 |
| 20260509103853 | 14 | 220 | 0.0 | 0.0 | 0.00 | 0.00 | 0.03 | 53 | 1015.3 |
| 20260509102852 | 14 | 182 | 0.0 | 0.0 | 0.00 | 0.00 | 0.03 | 52 | 1015.0 |
| 20260509101852 | 14 | 173 | 0.0 | 0.0 | 0.00 | 0.00 | 0.03 | 51 | 1014.7 |
| 20260509100851 | 15 | 175 | 0.0 | 0.0 | 0.00 | 0.00 | 0.03 | 50 | 1014.3 |
| 20260509094848 | 15 | 186 | 1.6 | 6.4 | 0.00 | 0.00 | 0.03 | 47 | 1014.2 |
| 20260509093848 | 16 | 132 | 3.2 | 6.4 | 0.00 | 0.00 | 0.03 | 45 | 1014.0 |
| 20260509092847 | 16 | 180 | 0.0 | 0.0 | 0.00 | 0.00 | 0.03 | 44 | 1013.9 |
| 20260509091847 | 16 | 225 | 0.0 | 0.0 | 0.00 | 0.00 | 0.03 | 44 | 1013.6 |
| 20260509090846 | 16 | 166 | 0.0 | 3.2 | 0.00 | 0.00 | 0.03 | 42 | 1013.4 |
| 20260509085846 | 17 | 180 | 0.0 | 0.0 | 0.00 | 0.00 | 0.03 | 42 | 1013.4 |
| 20260509084846 | 17 | 151 | 1.6 | 3.2 | 0.00 | 0.00 | 0.03 | 40 | 1013.3 |
| 20260509083845 | 17 | 225 | 0.0 | 1.6 | 0.00 | 0.00 | 0.03 | 39 | 1013.3 |
| 20260509082845 | 17 | 180 | 0.0 | 3.2 | 0.00 | 0.00 | 0.03 | 39 | 1013.2 |
| 20260509081845 | 18 | 153 | 0.0 | 1.6 | 0.00 | 0.00 | 0.03 | 38 | 1012.9 |
| 20260509080844 | 18 | 225 | 0.0 | 1.6 | 0.00 | 0.00 | 0.03 | 38 | 1012.9 |
| 20260509075844 | 18 | 198 | 0.0 | 1.6 | 0.00 | 0.00 | 0.03 | 38 | 1012.9 |
| 20260509074843 | 18 | 180 | 0.0 | 0.0 | 0.00 | 0.00 | 0.03 | 37 | 1012.9 |
| 20260509073843 | 18 | 225 | 0.0 | 1.6 | 0.00 | 0.00 | 0.03 | 37 | 1012.9 |
| 20260509072843 | 19 | 189 | 0.0 | 1.6 | 0.00 | 0.00 | 0.03 | 36 | 1012.6 |
| 20260509071843 | 19 | 184 | 0.0 | 1.6 | 0.00 | 0.00 | 0.03 | 36 | 1012.3 |
| 20260509070842 | 19 | 220 | 0.0 | 1.6 | 0.00 | 0.00 | 0.03 | 36 | 1012.4 |
| 20260509064838 | 19 | 225 | 0.0 | 1.6 | 0.00 | 0.00 | 0.03 | 35 | 1012.3 |
| 20260509063838 | 19 | 225 | 0.0 | 6.4 | 0.00 | 0.00 | 0.03 | 34 | 1012.2 |
| 20260509062838 | 19 | 225 | 0.0 | 1.6 | 0.00 | 0.00 | 0.03 | 34 | 1012.2 |
| 20260509061838 | 20 | 115 | 1.6 | 3.2 | 0.00 | 0.00 | 0.03 | 34 | 1012.3 |
| 20260509060837 | 19 | 211 | 0.0 | 3.2 | 0.00 | 0.00 | 0.03 | 34 | 1012.2 |
| 20260509055837 | 19 | 132 | 0.0 | 3.2 | 0.00 | 0.00 | 0.03 | 33 | 1012.3 |
| 20260509054836 | 20 | 207 | 0.0 | 4.8 | 0.00 | 0.00 | 0.03 | 34 | 1012.2 |
| 20260509053836 | 19 | 234 | 0.0 | 17.7 | 0.00 | 0.00 | 0.03 | 31 | 1012.2 |
| 20260509052836 | 20 | 220 | 3.2 | 9.7 | 0.00 | 0.00 | 0.03 | 32 | 1012.2 |
| 20260509051836 | 20 | 220 | 1.6 | 3.2 | 0.00 | 0.00 | 0.03 | 33 | 1012.3 |
| 20260509050835 | 20 | 225 | 0.0 | 4.8 | 0.00 | 0.00 | 0.03 | 34 | 1012.3 |
| 20260509045835 | 20 | 165 | 0.0 | 11.3 | 0.00 | 0.00 | 0.03 | 33 | 1012.2 |
| 20260509044834 | 20 | 182 | 0.0 | 6.4 | 0.00 | 0.00 | 0.03 | 34 | 1012.1 |
| 20260509043834 | 20 | 261 | 6.4 | 14.5 | 0.00 | 0.00 | 0.03 | 31 | 1012.2 |
| 20260509042833 | 20 | 225 | 0.0 | 4.8 | 0.00 | 0.00 | 0.03 | 37 | 1012.3 |
| 20260509041833 | 20 | 193 | 0.0 | 1.6 | 0.00 | 0.00 | 0.03 | 38 | 1012.3 |
| 20260509040833 | 20 | 112 | 4.8 | 4.8 | 0.00 | 0.00 | 0.03 | 36 | 1012.2 |
| 20260509035833 | 20 | 207 | 0.0 | 1.6 | 0.00 | 0.00 | 0.03 | 39 | 1012.2 |
| 20260509034832 | 20 | 238 | 1.6 | 4.8 | 0.00 | 0.00 | 0.03 | 41 | 1012.2 |
| 20260509033832 | 20 | 157 | 3.2 | 3.2 | 0.00 | 0.00 | 0.03 | 41 | 1012.1 |
| 20260509032831 | 19 | 138 | 1.6 | 3.2 | 0.00 | 0.00 | 0.03 | 42 | 1012.2 |
| 20260509031831 | 19 | 126 | 3.2 | 4.8 | 0.00 | 0.00 | 0.03 | 44 | 1012.1 |
| 20260509030831 | 18 | 192 | 0.0 | 3.2 | 0.00 | 0.00 | 0.03 | 45 | 1012.1 |
| 20260509025831 | 18 | 210 | 0.0 | 6.4 | 0.00 | 0.00 | 0.03 | 51 | 1011.8 |
| 20260509024830 | 17 | 225 | 0.0 | 1.6 | 0.00 | 0.00 | 0.03 | 59 | 1012.0 |
| 20260509023830 | 17 | 96 | 1.6 | 3.2 | 0.00 | 0.00 | 0.03 | 61 | 1012.3 |
| 20260509022829 | 16 | 45 | 0.0 | 4.8 | 0.00 | 0.00 | 0.03 | 63 | 1012.1 |
| 20260509021829 | 16 | 125 | 3.2 | 4.8 | 0.00 | 0.00 | 0.03 | 63 | 1012.2 |
| 20260509020828 | 16 | 96 | 3.2 | 11.3 | 0.00 | 0.00 | 0.03 | 63 | 1012.4 |
| 20260509015828 | 16 | 207 | 0.0 | 9.7 | 0.00 | 0.00 | 0.03 | 67 | 1012.4 |
| 20260509014828 | 16 | 108 | 4.8 | 4.8 | 0.00 | 0.00 | 0.03 | 71 | 1012.7 |
| 20260509013828 | 15 | 218 | 1.6 | 4.8 | 0.00 | 0.00 | 0.03 | 72 | 1012.5 |
| 20260509012827 | 15 | 202 | 0.0 | 3.2 | 0.00 | 0.00 | 0.03 | 75 | 1012.7 |
| 20260509011827 | 14 | 180 | 0.0 | 3.2 | 0.00 | 0.00 | 0.03 | 78 | 1012.9 |
| 20260509010826 | 13 | 105 | 1.6 | 3.2 | 0.00 | 0.00 | 0.03 | 79 | 1012.9 |
| 20260509005826 | 13 | 222 | 1.6 | 8.0 | 0.00 | 0.00 | 0.03 | 79 | 1012.5 |
| 20260509004826 | 12 | 243 | 1.6 | 4.8 | 0.00 | 0.00 | 0.03 | 79 | 1012.7 |
| 20260509003826 | 12 | 315 | 0.0 | 3.2 | 0.00 | 0.00 | 0.03 | 79 | 1012.8 |
| 20260509002825 | 12 | 218 | 0.0 | 6.4 | 0.00 | 0.00 | 0.03 | 79 | 1012.7 |
| 20260509001825 | 12 | 270 | 0.0 | 4.8 | 0.00 | 0.00 | 0.03 | 79 | 1012.7 |
| 20260509000824 | 12 | 193 | 0.0 | 4.8 | 0.00 | 0.00 | 0.03 | 80 | 1012.6 |
| 20260508235824 | 12 | 220 | 0.0 | 6.4 | 0.00 | 0.00 | 0.03 | 81 | 1012.6 |
| 20260508234824 | 12 | 101 | 1.6 | 6.4 | 0.00 | 0.00 | 0.03 | 82 | 1012.5 |
| 20260508233824 | 12 | 216 | 0.0 | 1.6 | 0.00 | 0.00 | 0.03 | 83 | 1012.5 |
| 20260508232823 | 11 | 105 | 1.6 | 8.0 | 0.00 | 0.00 | 0.03 | 82 | 1012.5 |
| 20260508231823 | 12 | 241 | 0.0 | 4.8 | 0.00 | 0.00 | 0.03 | 83 | 1012.5 |
| 20260508230822 | 12 | 270 | 0.0 | 3.2 | 0.00 | 0.00 | 0.03 | 83 | 1012.3 |
| 20260508225822 | 12 | 180 | 0.0 | 4.8 | 0.00 | 0.00 | 0.03 | 84 | 1012.2 |
| 20260508224821 | 11 | 144 | 1.6 | 1.6 | 0.00 | 0.00 | 0.03 | 85 | 1011.9 |
| 20260508223821 | 11 | 211 | 0.0 | 1.6 | 0.00 | 0.00 | 0.03 | 85 | 1011.8 |
| 20260508222821 | 10 | 151 | 0.0 | 4.8 | 0.00 | 0.00 | 0.03 | 87 | 1011.7 |
| 20260508221821 | 10 | 189 | 0.0 | 3.2 | 0.00 | 0.00 | 0.00 | 90 | 1011.4 |
| 20260508220820 | 9 | 225 | 0.0 | 3.2 | 0.00 | 0.00 | 0.00 | 93 | 1011.1 |
| 20260508215820 | 9 | 225 | 1.6 | 3.2 | 0.00 | 0.00 | 0.00 | 94 | 1010.5 |
| 20260508214819 | 8 | 180 | 0.0 | 4.8 | 0.00 | 0.00 | 0.00 | 94 | 1009.9 |
| 20260508213819 | 8 | 157 | 0.0 | 4.8 | 0.00 | 0.00 | 0.00 | 94 | 1009.6 |
| 20260508212819 | 8 | 225 | 1.6 | 1.6 | 0.00 | 0.00 | 0.00 | 93 | 1009.0 |
| 20260508211819 | 8 | 180 | 0.0 | 0.0 | 0.00 | 0.00 | 0.00 | 95 | 1008.5 |
| 20260508210818 | 8 | 180 | 0.0 | 1.6 | 0.00 | 0.00 | 0.00 | 94 | 1008.2 |